| time (UTC) | temp C | wind direction | speed KPH | gust KPH | rain 1hr cm | rain 24hr cm | rain mn cm | humidity % | barometer mb |
| 20260504140933 | 17 | 162 | 6.4 | 11.3 | 0.00 | 0.00 | 0.00 | 50 | 1015.1 |
| 20260504140429 | 17 | 239 | 4.8 | 12.9 | 0.00 | 0.00 | 0.00 | 52 | 1015.3 |
| 20260504130354 | 15 | 199 | 6.4 | 17.7 | 0.00 | 0.00 | 0.00 | 60 | 1015.7 |
| 20260504120317 | 12 | 230 | 6.4 | 9.7 | 0.00 | 0.00 | 0.00 | 72 | 1016.3 |
| 20260504110241 | 11 | 219 | 1.6 | 4.8 | 0.00 | 0.00 | 0.00 | 77 | 1016.8 |
| 20260504100205 | 10 | 141 | 1.6 | 3.2 | 0.00 | 0.00 | 0.00 | 76 | 1016.5 |
| 20260504090128 | 10 | 248 | 3.2 | 12.9 | 0.00 | 0.00 | 0.00 | 76 | 1016.8 |
| 20260504081558 | 10 | 193 | 4.8 | 9.7 | 0.00 | 0.00 | 0.00 | 75 | 1016.8 |
| 20260504081054 | 10 | 204 | 3.2 | 4.8 | 0.00 | 0.00 | 0.00 | 75 | 1016.9 |
| 20260504080551 | 10 | 226 | 4.8 | 6.4 | 0.00 | 0.00 | 0.00 | 74 | 1017.0 |
| 20260504050403 | 8 | 190 | 4.8 | 6.4 | 0.00 | 0.00 | 0.00 | 58 | 1016.8 |
| 20260504045900 | 8 | 236 | 4.8 | 6.4 | 0.00 | 0.00 | 0.00 | 58 | 1016.8 |
| 20260504045355 | 8 | 239 | 3.2 | 9.7 | 0.00 | 0.00 | 0.00 | 59 | 1016.7 |
| 20260504044852 | 8 | 281 | 1.6 | 3.2 | 0.00 | 0.00 | 0.00 | 59 | 1016.7 |
| 20260504044350 | 8 | 283 | 1.6 | 6.4 | 0.00 | 0.00 | 0.00 | 59 | 1016.7 |
| 20260504043847 | 8 | 342 | 1.6 | 4.8 | 0.00 | 0.00 | 0.00 | 60 | 1016.8 |
| 20260504043344 | 8 | 249 | 1.6 | 4.8 | 0.00 | 0.00 | 0.00 | 61 | 1016.9 |
| 20260504042841 | 7 | 258 | 1.6 | 1.6 | 0.00 | 0.00 | 0.00 | 62 | 1016.7 |
| 20260504042337 | 7 | 314 | 1.6 | 1.6 | 0.00 | 0.00 | 0.00 | 61 | 1016.7 |
| 20260504041834 | 7 | 317 | 1.6 | 3.2 | 0.00 | 0.00 | 0.00 | 61 | 1016.5 |
| 20260504041330 | 8 | 279 | 0.0 | 1.6 | 0.00 | 0.00 | 0.00 | 60 | 1016.6 |
| 20260504040826 | 8 | 358 | 0.0 | 1.6 | 0.00 | 0.00 | 0.00 | 59 | 1016.3 |
| 20260504040324 | 8 | 354 | 0.0 | 0.0 | 0.00 | 0.00 | 0.00 | 59 | 1016.5 |
| 20260504035820 | 8 | 332 | 0.0 | 3.2 | 0.00 | 0.00 | 0.00 | 59 | 1016.3 |
| 20260504035318 | 8 | 325 | 1.6 | 1.6 | 0.00 | 0.00 | 0.00 | 58 | 1016.3 |
| 20260504034814 | 8 | 304 | 1.6 | 3.2 | 0.00 | 0.00 | 0.00 | 58 | 1016.3 |
| 20260504034312 | 8 | 333 | 1.6 | 3.2 | 0.00 | 0.00 | 0.00 | 58 | 1016.3 |
| 20260504033809 | 8 | 359 | 0.0 | 3.2 | 0.00 | 0.00 | 0.00 | 59 | 1016.2 |
| 20260504033307 | 8 | 337 | 0.0 | 1.6 | 0.00 | 0.00 | 0.00 | 59 | 1016.1 |
| 20260504032803 | 8 | 357 | 0.0 | 3.2 | 0.00 | 0.00 | 0.00 | 59 | 1016.1 |
| 20260504032300 | 8 | 354 | 0.0 | 0.0 | 0.00 | 0.00 | 0.00 | 59 | 1016.2 |
| 20260504031757 | 7 | 272 | 1.6 | 3.2 | 0.00 | 0.00 | 0.00 | 60 | 1016.0 |
| 20260504031254 | 7 | 338 | 1.6 | 1.6 | 0.00 | 0.00 | 0.00 | 61 | 1016.1 |
| 20260504030750 | 7 | 10 | 0.0 | 0.0 | 0.00 | 0.00 | 0.00 | 63 | 1016.0 |
| 20260504030248 | 7 | 18 | 0.0 | 0.0 | 0.00 | 0.00 | 0.00 | 62 | 1016.1 |
| 20260504025744 | 7 | 344 | 0.0 | 1.6 | 0.00 | 0.00 | 0.00 | 62 | 1016.2 |
| 20260504025241 | 7 | 17 | 0.0 | 0.0 | 0.00 | 0.00 | 0.00 | 59 | 1016.2 |
| 20260504024738 | 7 | 0 | 0.0 | 0.0 | 0.00 | 0.00 | 0.00 | 59 | 1016.1 |
| 20260504024234 | 7 | 0 | 0.0 | 0.0 | 0.00 | 0.00 | 0.00 | 61 | 1016.1 |
| 20260504023731 | 7 | 19 | 0.0 | 0.0 | 0.00 | 0.00 | 0.00 | 62 | 1016.0 |
| 20260504023227 | 7 | 7 | 0.0 | 0.0 | 0.00 | 0.00 | 0.00 | 63 | 1016.0 |
| 20260504022723 | 6 | 359 | 0.0 | 0.0 | 0.00 | 0.00 | 0.00 | 64 | 1016.2 |
| 20260504022220 | 7 | 359 | 0.0 | 0.0 | 0.00 | 0.00 | 0.00 | 65 | 1016.3 |
| 20260504021717 | 7 | 359 | 0.0 | 0.0 | 0.00 | 0.00 | 0.00 | 64 | 1016.2 |
| 20260504021214 | 7 | 359 | 0.0 | 0.0 | 0.00 | 0.00 | 0.00 | 63 | 1016.2 |
| 20260504020711 | 7 | 359 | 0.0 | 0.0 | 0.00 | 0.00 | 0.00 | 61 | 1016.2 |
| 20260504020207 | 7 | 359 | 0.0 | 0.0 | 0.00 | 0.00 | 0.00 | 62 | 1016.0 |
| 20260504015704 | 7 | 359 | 0.0 | 0.0 | 0.00 | 0.00 | 0.00 | 61 | 1016.1 |
| 20260504015200 | 7 | 359 | 0.0 | 0.0 | 0.00 | 0.00 | 0.00 | 62 | 1015.7 |
| 20260504014655 | 8 | 359 | 0.0 | 0.0 | 0.00 | 0.00 | 0.00 | 61 | 1015.7 |
| 20260504014153 | 8 | 8 | 0.0 | 0.0 | 0.00 | 0.00 | 0.00 | 57 | 1015.8 |
| 20260504013651 | 8 | 10 | 0.0 | 1.6 | 0.00 | 0.00 | 0.00 | 59 | 1015.9 |
| 20260504013147 | 8 | 259 | 0.0 | 0.0 | 0.00 | 0.00 | 0.00 | 60 | 1015.9 |
| 20260504012644 | 8 | 11 | 0.0 | 0.0 | 0.00 | 0.00 | 0.00 | 59 | 1016.0 |
| 20260504012142 | 8 | 30 | 0.0 | 0.0 | 0.00 | 0.00 | 0.00 | 58 | 1015.8 |
| 20260504011639 | 8 | 31 | 0.0 | 0.0 | 0.00 | 0.00 | 0.00 | 61 | 1015.8 |
| 20260504011136 | 8 | 15 | 0.0 | 0.0 | 0.00 | 0.00 | 0.00 | 60 | 1015.6 |
| 20260504010631 | 8 | 349 | 0.0 | 0.0 | 0.00 | 0.00 | 0.00 | 59 | 1015.6 |
| 20260504010127 | 8 | 17 | 0.0 | 0.0 | 0.00 | 0.00 | 0.00 | 55 | 1015.7 |
| 20260504005625 | 8 | 18 | 0.0 | 0.0 | 0.00 | 0.00 | 0.00 | 54 | 1015.4 |
| 20260504005121 | 8 | 5 | 0.0 | 0.0 | 0.00 | 0.00 | 0.00 | 55 | 1015.6 |
| 20260504004620 | 8 | 27 | 0.0 | 0.0 | 0.00 | 0.00 | 0.00 | 53 | 1015.4 |
| 20260504004116 | 9 | 6 | 0.0 | 0.0 | 0.00 | 0.00 | 0.00 | 54 | 1015.5 |
| 20260504003613 | 9 | 12 | 0.0 | 0.0 | 0.00 | 0.00 | 0.00 | 53 | 1015.5 |
| 20260504003109 | 10 | 346 | 0.0 | 1.6 | 0.00 | 0.00 | 0.00 | 51 | 1015.0 |
| 20260504002606 | 10 | 346 | 0.0 | 1.6 | 0.00 | 0.00 | 0.00 | 50 | 1015.1 |
| 20260504002104 | 10 | 18 | 0.0 | 0.0 | 0.00 | 0.00 | 0.00 | 48 | 1014.9 |
| 20260504001601 | 11 | 16 | 0.0 | 0.0 | 0.00 | 0.00 | 0.00 | 47 | 1014.9 |
| 20260504001057 | 11 | 35 | 0.0 | 0.0 | 0.00 | 0.00 | 0.00 | 44 | 1014.9 |
| 20260504000554 | 12 | 21 | 0.0 | 0.0 | 0.00 | 0.00 | 0.00 | 42 | 1014.9 |
| 20260504000052 | 12 | 351 | 0.0 | 1.6 | 0.00 | 0.00 | 0.00 | 42 | 1014.9 |
| 20260503235550 | 13 | 358 | 1.6 | 1.6 | 0.00 | 0.00 | 0.00 | 39 | 1014.8 |
| 20260503235047 | 13 | 332 | 1.6 | 6.4 | 0.00 | 0.00 | 0.00 | 37 | 1014.7 |
| 20260503234544 | 13 | 221 | 1.6 | 3.2 | 0.00 | 0.00 | 0.00 | 36 | 1014.9 |
| 20260503234043 | 14 | 276 | 3.2 | 6.4 | 0.00 | 0.00 | 0.00 | 35 | 1014.9 |
| 20260503233538 | 14 | 272 | 1.6 | 4.8 | 0.00 | 0.00 | 0.00 | 34 | 1014.7 |
| 20260503233034 | 14 | 238 | 3.2 | 9.7 | 0.00 | 0.00 | 0.00 | 34 | 1014.8 |
| 20260503232532 | 14 | 264 | 4.8 | 16.1 | 0.00 | 0.00 | 0.00 | 34 | 1014.9 |
| 20260503232029 | 15 | 260 | 8.0 | 9.7 | 0.00 | 0.00 | 0.00 | 34 | 1014.8 |
| 20260503231527 | 15 | 271 | 6.4 | 12.9 | 0.00 | 0.00 | 0.00 | 33 | 1014.8 |
| 20260503231023 | 15 | 281 | 4.8 | 6.4 | 0.00 | 0.00 | 0.00 | 33 | 1014.6 |
| 20260503230520 | 15 | 278 | 4.8 | 9.7 | 0.00 | 0.00 | 0.00 | 33 | 1014.7 |
| 20260503230018 | 15 | 334 | 3.2 | 4.8 | 0.00 | 0.00 | 0.00 | 33 | 1014.6 |
| 20260503225514 | 15 | 264 | 4.8 | 12.9 | 0.00 | 0.00 | 0.00 | 32 | 1014.6 |
| 20260503225009 | 15 | 359 | 9.7 | 14.5 | 0.00 | 0.00 | 0.00 | 32 | 1014.6 |
| 20260503224507 | 15 | 291 | 11.3 | 17.7 | 0.00 | 0.00 | 0.00 | 32 | 1014.5 |
| 20260503224005 | 15 | 94 | 6.4 | 12.9 | 0.00 | 0.00 | 0.00 | 32 | 1014.5 |
| 20260503223502 | 15 | 242 | 4.8 | 12.9 | 0.00 | 0.00 | 0.00 | 32 | 1014.7 |
| 20260503222957 | 15 | 218 | 9.7 | 22.5 | 0.00 | 0.00 | 0.00 | 32 | 1014.6 |
| 20260503222456 | 15 | 212 | 11.3 | 17.7 | 0.00 | 0.00 | 0.00 | 31 | 1014.3 |
| 20260503221954 | 15 | 275 | 6.4 | 20.9 | 0.00 | 0.00 | 0.00 | 31 | 1014.4 |
| 20260503221452 | 15 | 258 | 9.7 | 20.9 | 0.00 | 0.00 | 0.00 | 32 | 1014.5 |
| 20260503220949 | 15 | 244 | 14.5 | 25.7 | 0.00 | 0.00 | 0.00 | 32 | 1014.5 |
| 20260503220445 | 15 | 243 | 12.9 | 17.7 | 0.00 | 0.00 | 0.00 | 32 | 1014.5 |
| 20260503215942 | 15 | 331 | 12.9 | 17.7 | 0.00 | 0.00 | 0.00 | 31 | 1014.5 |
| 20260503215439 | 15 | 233 | 12.9 | 20.9 | 0.00 | 0.00 | 0.00 | 31 | 1014.7 |
| 20260503214937 | 15 | 240 | 17.7 | 22.5 | 0.00 | 0.00 | 0.00 | 31 | 1014.4 |
| 20260503214434 | 15 | 229 | 4.8 | 17.7 | 0.00 | 0.00 | 0.00 | 33 | 1014.5 |
| 20260503213931 | 15 | 235 | 8.0 | 16.1 | 0.00 | 0.00 | 0.00 | 32 | 1014.3 |
| 20260503213430 | 15 | 253 | 6.4 | 12.9 | 0.00 | 0.00 | 0.00 | 31 | 1014.5 |
| 20260503212925 | 15 | 13 | 4.8 | 12.9 | 0.00 | 0.00 | 0.00 | 31 | 1014.5 |
| 20260503212423 | 16 | 234 | 19.3 | 25.7 | 0.00 | 0.00 | 0.00 | 30 | 1014.2 |
| 20260503211920 | 15 | 266 | 11.3 | 17.7 | 0.00 | 0.00 | 0.00 | 31 | 1014.5 |
| 20260503211417 | 15 | 220 | 4.8 | 17.7 | 0.00 | 0.00 | 0.00 | 31 | 1014.2 |
| 20260503210912 | 15 | 250 | 11.3 | 17.7 | 0.00 | 0.00 | 0.00 | 30 | 1014.2 |
| 20260503210410 | 15 | 321 | 12.9 | 12.9 | 0.00 | 0.00 | 0.00 | 31 | 1014.3 |
| 20260503205904 | 15 | 245 | 6.4 | 17.7 | 0.00 | 0.00 | 0.00 | 32 | 1014.2 |
| 20260503205402 | 15 | 341 | 8.0 | 25.7 | 0.00 | 0.00 | 0.00 | 31 | 1014.2 |
| 20260503204858 | 15 | 289 | 11.3 | 17.7 | 0.00 | 0.00 | 0.00 | 31 | 1014.2 |
| 20260503204355 | 15 | 224 | 11.3 | 16.1 | 0.00 | 0.00 | 0.00 | 32 | 1014.3 |
| 20260503203852 | 15 | 270 | 14.5 | 16.1 | 0.00 | 0.00 | 0.00 | 31 | 1014.1 |
| 20260503203350 | 15 | 344 | 12.9 | 17.7 | 0.00 | 0.00 | 0.00 | 31 | 1014.2 |
| 20260503202846 | 15 | 190 | 17.7 | 25.7 | 0.00 | 0.00 | 0.00 | 30 | 1014.2 |
| 20260503202345 | 15 | 230 | 14.5 | 17.7 | 0.00 | 0.00 | 0.00 | 31 | 1014.3 |
| 20260503201843 | 15 | 259 | 11.3 | 16.1 | 0.00 | 0.00 | 0.00 | 31 | 1014.3 |
| 20260503201339 | 15 | 269 | 12.9 | 22.5 | 0.00 | 0.00 | 0.00 | 31 | 1014.0 |
| 20260503200837 | 15 | 231 | 16.1 | 25.7 | 0.00 | 0.00 | 0.00 | 32 | 1014.5 |
| 20260503200332 | 15 | 241 | 17.7 | 24.1 | 0.00 | 0.00 | 0.00 | 30 | 1014.6 |
| 20260503195830 | 15 | 27 | 8.0 | 14.5 | 0.00 | 0.00 | 0.00 | 31 | 1014.4 |
| 20260503195326 | 15 | 242 | 12.9 | 27.4 | 0.00 | 0.00 | 0.00 | 31 | 1014.3 |
| 20260503194824 | 15 | 299 | 4.8 | 17.7 | 0.00 | 0.00 | 0.00 | 32 | 1014.5 |
| 20260503194319 | 14 | 272 | 19.3 | 25.7 | 0.00 | 0.00 | 0.00 | 31 | 1014.5 |
| 20260503193816 | 15 | 215 | 12.9 | 14.5 | 0.00 | 0.00 | 0.00 | 33 | 1014.4 |
| 20260503193312 | 15 | 227 | 8.0 | 14.5 | 0.00 | 0.00 | 0.00 | 32 | 1014.5 |
| 20260503192808 | 15 | 248 | 9.7 | 20.9 | 0.00 | 0.00 | 0.00 | 32 | 1014.6 |
| 20260503192305 | 14 | 345 | 6.4 | 14.5 | 0.00 | 0.00 | 0.00 | 33 | 1014.6 |
| 20260503191800 | 15 | 347 | 22.5 | 27.4 | 0.00 | 0.00 | 0.00 | 32 | 1014.7 |
| 20260503191257 | 14 | 259 | 4.8 | 16.1 | 0.00 | 0.00 | 0.00 | 35 | 1014.6 |
| 20260503190754 | 14 | 215 | 12.9 | 20.9 | 0.00 | 0.00 | 0.00 | 33 | 1014.6 |
| 20260503190251 | 15 | 0 | 14.5 | 20.9 | 0.00 | 0.00 | 0.00 | 32 | 1014.6 |
| 20260503185748 | 14 | 344 | 8.0 | 16.1 | 0.00 | 0.00 | 0.00 | 33 | 1014.7 |
| 20260503185243 | 15 | 328 | 14.5 | 24.1 | 0.00 | 0.00 | 0.00 | 31 | 1014.8 |
| 20260503184738 | 15 | 253 | 4.8 | 16.1 | 0.00 | 0.00 | 0.00 | 33 | 1014.6 |
| 20260503184235 | 15 | 329 | 8.0 | 14.5 | 0.00 | 0.00 | 0.00 | 33 | 1014.8 |
| 20260503183731 | 14 | 244 | 9.7 | 20.9 | 0.00 | 0.00 | 0.00 | 34 | 1014.8 |
| 20260503183229 | 14 | 265 | 4.8 | 14.5 | 0.00 | 0.00 | 0.00 | 36 | 1015.0 |
| 20260503182726 | 14 | 315 | 11.3 | 24.1 | 0.00 | 0.00 | 0.00 | 33 | 1015.1 |
| 20260503182225 | 14 | 311 | 8.0 | 22.5 | 0.00 | 0.00 | 0.00 | 35 | 1015.1 |
| 20260503181721 | 13 | 249 | 3.2 | 14.5 | 0.00 | 0.00 | 0.00 | 34 | 1014.8 |
| 20260503181218 | 13 | 325 | 14.5 | 24.1 | 0.00 | 0.00 | 0.00 | 33 | 1015.1 |
| 20260503180714 | 13 | 254 | 11.3 | 25.7 | 0.00 | 0.00 | 0.00 | 36 | 1015.1 |
| 20260503180213 | 13 | 270 | 11.3 | 25.7 | 0.00 | 0.00 | 0.00 | 37 | 1015.0 |
| 20260503175710 | 14 | 284 | 9.7 | 17.7 | 0.00 | 0.00 | 0.00 | 35 | 1015.0 |
| 20260503175208 | 13 | 1 | 9.7 | 22.5 | 0.00 | 0.00 | 0.00 | 36 | 1015.0 |
| 20260503174703 | 13 | 340 | 11.3 | 16.1 | 0.00 | 0.00 | 0.00 | 36 | 1015.2 |
| 20260503174201 | 13 | 13 | 14.5 | 17.7 | 0.00 | 0.00 | 0.00 | 38 | 1015.1 |
| 20260503173656 | 13 | 257 | 8.0 | 14.5 | 0.00 | 0.00 | 0.00 | 37 | 1015.0 |
| 20260503173152 | 13 | 10 | 14.5 | 25.7 | 0.00 | 0.00 | 0.00 | 37 | 1015.2 |
| 20260503172649 | 13 | 272 | 4.8 | 12.9 | 0.00 | 0.00 | 0.00 | 40 | 1014.9 |
| 20260503172147 | 12 | 348 | 6.4 | 11.3 | 0.00 | 0.00 | 0.00 | 39 | 1015.2 |
| 20260503171643 | 13 | 11 | 6.4 | 14.5 | 0.00 | 0.00 | 0.00 | 39 | 1015.2 |
| 20260503171141 | 13 | 235 | 9.7 | 17.7 | 0.00 | 0.00 | 0.00 | 38 | 1015.2 |
| 20260503170637 | 12 | 348 | 14.5 | 20.9 | 0.00 | 0.00 | 0.00 | 40 | 1015.1 |
| 20260503170134 | 12 | 234 | 9.7 | 12.9 | 0.00 | 0.00 | 0.00 | 38 | 1015.2 |
| 20260503150526 | 10 | 271 | 9.7 | 12.9 | 0.00 | 0.00 | 0.00 | 48 | 1015.4 |